Weather Roundup
Issued by NWS Chicago, IL

Home | Current Version | Previous Version | Text Only | Print | Product List | Glossary Off
Versions: 1 2 3 4 5 6 7 8 9 10 11 12 13 14 15 16 17 18 19 20 21 22 23 24 25 26 27 28 29 30 31 32 33 34 35 36 37 38 39 40 41 42 43 44 45 46 47 48 49 50

000
NZUS59 KLOT 191605
HRRLOT

CHICAGO AREA WEATHER ROUNDUP
NATIONAL WEATHER SERVICE CHICAGO/ROMEOVILLE IL
1100 AM CDT TUE SEP 19 2017

NOTE: "FAIR" INDICATES FEW OR NO CLOUDS BELOW 12,000 FEET WITH NO
SIGNIFICANT WEATHER AND/OR OBSTRUCTIONS TO VISIBILITY.

* THESE STATIONS ARE NOT UNDER NWS QUALITY CONTROL. THEY ALSO MAY NOT
  REPORT WEATHER SUCH AS PRECIPITATION OR FOG.

ILZ005-006-012>014-019>023-191700-
NORTHEAST ILLINOIS

CITY           SKY/WX    TMP DP  RH WIND       PRES   REMARKS
OHARE          CLOUDY    71  66  84 NE6       29.97S
MIDWAY         LGT RAIN  70  66  87 NE6       29.96F
AURORA         MOSUNNY   74  67  78 VRB3      29.97F
LANSING*       CLOUDY    72  68  88 NW5       29.96S
JOLIET*        MOSUNNY   76  67  74 CALM      29.97R
WAUKEGAN       CLOUDY    69  68  96 CALM      29.98S FOG
DUPAGE AIRPORT PTSUNNY   73  67  81 NE6       29.96F
WHEELING       CLOUDY    70  68  93 CALM      29.98F
MORRIS*        PTSUNNY   72  65  78 CALM      29.96S
LEWIS AIRPORT* PTSUNNY   72  66  80 NE7       29.97S
NORTHERLY ISL    N/A     69  65  86 E3          N/A
$$

WIZ051-052-058>065-066-070>072-191700-
SOUTHEAST WISCONSIN

CITY           SKY/WX    TMP DP  RH WIND       PRES   REMARKS
MILWAUKEE      MOSUNNY   74  65  73 NE8       29.99S
KENOSHA*       PTSUNNY   73  65  75 VRB3      29.99R
RACINE*        CLOUDY    74  66  76 E5        30.00S
WAUKESHA       SUNNY     72  61  68 E7        30.00F
$$

INZ001>003-010>013-019-020-191700-
NORTHWEST INDIANA

CITY           SKY/WX    TMP DP  RH WIND       PRES   REMARKS
GARY*          PTSUNNY   73  66  78 CALM      29.97S
MICHIGAN CITY* NOT AVBL
RENSSELAER*    NOT AVBL
VALPARAISO     CLOUDY    71  67  87 NE3       29.97R
$$

LMZ740>746-191700-
SOUTHERN LAKE MICHIGAN

STATION/POSITION TIME  SKY/WX   TEMP WIND        PRES    VSBY
                                AIR  DIR/SP/G
                 (UTC)          (F)  (DEG/KT/KT) (MB)    (MI)
HARRISON CRIB    1540            69   70/  3/  3   N/A
BURNHAM HARBOR   NOT AVBL
CALUMET HARBOR   1530            69  350/  4/  6 1014.3R
BURNS HARBOR     1540            68  330/  6/  7 1015.2R
MICHIGAN CITY    1540            69  340/  5/  6   N/A
$$

ABBREVIATIONS USED IN REMARKS
   TC - TEMPERATURE IN CELSIUS
  WCI - WIND CHILL INDEX
   HX - HEAT INDEX
  VSB - VISIBILITY
$$




USA.gov is the U.S. government's official web portal to all federal, state and local government web resources and services.